Location: Bauerbach
(50.4985°N, 10.3912°E)
Time: 07:49:58
(UTC+00:00)

BlueWalker 3 - Visible Passes

Search period start: 08 March 2026 00:00
Search period end: 18 March 2026 00:00
Orbit: 451 x 458 km, 53.2° (Epoch: 7 March)

Date Brightness Start Highest point End Pass type
(mag) Time Alt. Az. Time Alt. Az. Time Alt. Az.
8 Mar 3.5 03:01:06 32° ENE 03:01:06 32° ENE 03:03:11 10° ENE visible
8 Mar 2.2 04:34:47 18° WNW 04:37:20 56° N 04:40:53 10° E visible
9 Mar 4.7 02:26:16 16° ENE 02:26:16 16° ENE 02:27:05 10° ENE visible
9 Mar 2.2 03:59:57 35° NW 04:01:10 54° N 04:04:43 10° E visible
10 Mar 2.3 03:25:08 53° N 03:25:08 53° N 03:28:33 10° E visible
10 Mar 1.7 04:59:02 10° WNW 05:02:39 90° S 05:06:15 10° ESE visible
11 Mar 3.7 02:50:19 30° ENE 02:50:19 30° ENE 02:52:21 10° ENE visible
11 Mar 1.8 04:23:59 19° WNW 04:26:30 80° NNE 04:30:06 10° ESE visible
12 Mar 4.8 02:15:31 14° ENE 02:15:31 14° ENE 02:16:10 10° ENE visible
12 Mar 1.9 03:49:12 40° WNW 03:50:20 71° NNE 03:53:55 10° E visible
13 Mar 2.2 03:14:27 60° NE 03:14:27 60° NE 03:17:42 10° E visible
13 Mar 2.2 04:48:08 10° WNW 04:51:31 43° SSW 04:54:56 10° SE visible
14 Mar 3.9 02:39:46 25° E 02:39:46 25° E 02:41:29 10° E visible
14 Mar 1.9 04:13:26 24° W 04:15:23 53° SSW 04:18:53 10° SE visible
15 Mar 5.0 02:05:08 10° E 02:05:08 10° E 02:05:13 10° E visible
15 Mar 1.7 03:38:50 60° WSW 03:39:12 65° SSW 03:42:45 10° SE visible
16 Mar 2.9 03:04:20 36° SE 03:04:20 36° SE 03:06:35 10° ESE visible
16 Mar 3.3 04:38:03 13° W 04:40:00 19° SW 04:42:34 10° S visible
17 Mar 4.6 02:30:00 12° ESE 02:30:00 12° ESE 02:30:22 10° ESE visible
17 Mar 3.0 04:03:43 23° SW 04:03:52 23° SW 04:06:46 10° SSE visible
